Voltar ao catálogo

COSMOS 1275 DEB

AtivoPO
NORAD 17620·DEBRIS·🇷🇺 Russia

Lançado Jun 4, 1981 de Plesetsk Cosmodrome

Loading…

Próximas Passagens (próximas 24 horas)

TLE

AtualizadoSource: Space-Track

Época: Sep 14, 2026, 19:25 UTC

1 17620U 81053KP  26257.80932488  .00004079  00000-0  12107-2 0  9990
2 17620  83.1710  33.1968 0018246 335.8835  24.1503 14.43013640126587

Acompanhe COSMOS 1275 DEB em tempo real com AllMySat

Download on the App Store